Location: Unspecified
(0.0000°N, 0.0000°E)
Time: 01:38:47
(UTC+00:00)

Vanguard 2 Rocket - Visible Passes

Search period start: 17 October 2017 00:00
Search period end: 27 October 2017 00:00
Orbit: 555 x 3327 km, 32.9° (Epoch: 16 October)

Date Brightness Start Highest point End Pass type
(mag) Time Alt. Az. Time Alt. Az. Time Alt. Az.
17 Oct 9.6 18:56:13 10° NW 19:13:12 57° NE 19:25:36 28° E visible
17 Oct 9.5 21:12:28 10° WNW 21:31:32 70° SW 21:31:32 70° SW visible
17 Oct 10.9 23:35:42 10° W 00:06:35 - SSE 23:37:29 13° W visible
18 Oct 9.8 17:56:30 10° NNW 18:11:05 43° NE 18:29:37 10° E visible
18 Oct 9.4 20:11:02 10° NW 20:30:04 88° SW 20:36:53 55° SE visible
18 Oct 10.3 22:31:05 10° W 22:42:51 33° WSW 22:42:51 33° WSW visible
19 Oct 9.4 19:10:27 10° NW 19:27:47 75° NE 19:42:29 25° ESE visible
19 Oct 9.8 21:27:55 10° WNW 21:47:03 53° SW 21:48:28 52° SSW visible
19 Oct 10.8 23:54:01 10° WSW 00:18:45 - SSE 23:54:28 11° WSW visible
20 Oct 9.5 18:10:33 10° NW 18:25:45 57° NE 18:45:37 10° ESE visible
20 Oct 9.6 20:25:57 10° WNW 20:44:39 68° SW 20:54:23 39° SSE visible
20 Oct 10.5 22:48:14 10° W 23:21:50 - SE 23:00:24 28° SW visible
21 Oct 10.6 01:27:34 11° S 01:27:34 11° S 01:28:41 10° S visible
21 Oct 9.5 19:24:59 10° NW 19:42:18 85° SW 20:00:36 16° SE visible
21 Oct 10.2 21:44:07 10° W 22:02:02 40° SSW 22:06:39 36° S visible
22 Oct 10.7 00:30:31 11° S 00:30:31 11° S 00:31:11 10° SSE visible
22 Oct 9.5 04:58:33 10° SSW 05:02:29 15° SSE 05:05:37 10° SE visible
22 Oct 9.4 18:24:49 10° NW 18:40:14 76° NE 19:00:52 10° ESE visible
22 Oct 10.0 20:41:27 10° WNW 20:59:28 52° SW 21:13:19 22° SSE visible
22 Oct 10.6 23:06:26 10° WSW 23:33:15 - SSE 23:19:25 22° SSW visible
23 Oct 10.6 01:40:59 10° SSW 01:42:24 10° S 01:43:46 10° S visible
23 Oct 9.9 03:58:36 10° S 04:02:00 12° SSE 04:04:51 10° SE visible
23 Oct 9.7 19:39:57 10° WNW 19:57:00 66° SW 20:17:08 10° SE visible
23 Oct 10.5 22:01:15 10° W 22:17:32 30° SSW 22:26:50 21° S visible
24 Oct 10.7 00:32:34 10° SW 00:41:03 13° S 00:46:03 10° SSE visible
24 Oct 10.2 02:57:39 10° S 03:00:57 11° S 03:03:49 10° SSE visible
24 Oct 8.8 05:11:30 10° SSW 05:18:02 27° SSE 05:22:27 10° E visible
24 Oct 9.5 18:39:24 10° WNW 18:54:47 83° SW 19:15:34 10° SE visible
24 Oct 10.3 20:57:41 10° W 21:14:41 39° SSW 21:32:04 10° SSE visible
24 Oct 10.7 23:25:22 10° SW 23:36:51 18° SSW 23:46:37 10° SSE visible
25 Oct 10.5 01:54:51 10° SSW 01:59:15 12° S 02:03:03 10° SSE visible
25 Oct 9.4 04:11:03 10° SSW 04:17:53 21° SSE 04:22:39 10° ESE visible
25 Oct 9.3 17:39:36 10° NW 17:53:02 78° NE 18:13:16 10° ESE visible
25 Oct 10.1 19:55:30 10° WNW 20:11:59 50° SSW 20:31:15 10° SE visible
25 Oct 10.7 22:19:18 10° WSW 22:33:39 23° SSW 22:46:38 10° SSE visible
26 Oct 10.7 00:50:05 10° SSW 00:56:51 13° S 01:02:36 10° SSE visible
26 Oct 9.9 03:10:04 10° SSW 03:17:11 18° SSE 03:22:23 10° SE visible
26 Oct 9.8 18:54:27 10° WNW 19:09:34 63° SSW 19:29:51 10° SE visible
26 Oct 10.6 21:14:47 10° WSW 21:30:27 29° SSW 21:46:11 10° SSE visible
